Location: Dziadowski
(50.3833°N, 20.0333°E)
Time: 05:08:49
(UTC+00:00)

Gbstr 26 Del rocket - Pass Details

Date: 18 January 2026
Orbit: 490 x 1217 km, 51.8° (Epoch: 17 February)

Event Time Altitude Azimuth Distance (km) Brightness Sun altitude
Exits shadow 04:33:59 19° 244° (WSW) 2,400 5.6 -18.2°
Maximum altitude 04:39:31 81° 160° (SSE) 1,068 4.2 -17.3°
Drops below altitude 10° 04:45:54 10° 74° (ENE) 2,624 7.2 -16.4°
Sets 04:48:14 0° 73° (ENE) 3,461 8.0 -16.0°
